Year,Month,Day,Hour,Minute,Value (Times are PST for temperature in C)
2010,08,17,00,00,18.70
2010,08,17,00,01,18.70
2010,08,17,00,02,18.70
2010,08,17,00,03,18.70
2010,08,17,00,04,18.70
2010,08,17,00,05,18.70
2010,08,17,00,06,18.70
2010,08,17,00,07,18.60
2010,08,17,00,08,18.60
2010,08,17,00,09,18.50
2010,08,17,00,10,18.50
2010,08,17,00,11,18.40
2010,08,17,00,12,18.40
2010,08,17,00,13,18.30
2010,08,17,00,14,18.30
2010,08,17,00,15,18.20
2010,08,17,00,16,18.10
2010,08,17,00,17,18.00
2010,08,17,00,18,17.90
2010,08,17,00,19,17.90
2010,08,17,00,20,17.80
2010,08,17,00,21,17.80
2010,08,17,00,22,17.80
2010,08,17,00,23,17.80
2010,08,17,00,24,17.90
2010,08,17,00,25,17.90
2010,08,17,00,26,18.00
2010,08,17,00,27,18.00
2010,08,17,00,28,18.10
2010,08,17,00,29,18.20
2010,08,17,00,30,18.30
2010,08,17,00,31,18.30
2010,08,17,00,32,18.40
2010,08,17,00,33,18.50
2010,08,17,00,34,18.60
2010,08,17,00,35,18.60
2010,08,17,00,36,18.70
2010,08,17,00,37,18.70
2010,08,17,00,38,18.70
2010,08,17,00,39,18.70
2010,08,17,00,40,18.70
2010,08,17,00,41,18.60
2010,08,17,00,42,18.60
2010,08,17,00,43,18.50
2010,08,17,00,44,18.50
2010,08,17,00,45,18.40
2010,08,17,00,46,18.40
2010,08,17,00,47,18.30
2010,08,17,00,48,18.30
2010,08,17,00,49,18.30
2010,08,17,00,50,18.30
2010,08,17,00,51,18.30
2010,08,17,00,52,18.20
2010,08,17,00,53,18.20
2010,08,17,00,54,18.20
2010,08,17,00,55,18.10
2010,08,17,00,56,18.10
2010,08,17,00,57,18.00
2010,08,17,00,58,18.00
2010,08,17,00,59,17.90
2010,08,17,01,00,17.90
2010,08,17,01,01,17.90
2010,08,17,01,02,17.90
2010,08,17,01,03,17.90
2010,08,17,01,04,17.80
2010,08,17,01,05,17.80
2010,08,17,01,06,17.80
2010,08,17,01,07,17.90
2010,08,17,01,08,17.90
2010,08,17,01,09,17.90
2010,08,17,01,10,17.90
2010,08,17,01,11,17.90
2010,08,17,01,12,18.00
2010,08,17,01,13,18.10
2010,08,17,01,14,18.20
2010,08,17,01,15,18.40
2010,08,17,01,16,18.70
2010,08,17,01,17,19.00
2010,08,17,01,18,19.20
2010,08,17,01,19,19.50
2010,08,17,01,20,19.80
2010,08,17,01,21,20.00
2010,08,17,01,22,20.30
2010,08,17,01,23,20.70
2010,08,17,01,24,21.00
2010,08,17,01,25,21.30
2010,08,17,01,26,21.60
2010,08,17,01,27,21.80
2010,08,17,01,28,22.00
2010,08,17,01,29,22.20
2010,08,17,01,30,22.40
2010,08,17,01,31,22.60
2010,08,17,01,32,22.80
2010,08,17,01,33,23.00
2010,08,17,01,34,23.10
2010,08,17,01,35,23.20
2010,08,17,01,36,23.30
2010,08,17,01,37,23.40
2010,08,17,01,38,23.50
2010,08,17,01,39,23.60
2010,08,17,01,40,23.70
2010,08,17,01,41,23.70
2010,08,17,01,42,23.80
2010,08,17,01,43,23.90
2010,08,17,01,44,24.00
2010,08,17,01,45,24.00
2010,08,17,01,46,24.10
2010,08,17,01,47,24.10
2010,08,17,01,48,24.20
2010,08,17,01,49,24.20
2010,08,17,01,50,24.10
2010,08,17,01,51,24.10
2010,08,17,01,52,24.00
2010,08,17,01,53,24.00
2010,08,17,01,54,23.90
2010,08,17,01,55,23.90
2010,08,17,01,56,23.90
2010,08,17,01,57,23.80
2010,08,17,01,58,23.80
2010,08,17,01,59,23.80
2010,08,17,02,00,23.70
2010,08,17,02,01,23.70
2010,08,17,02,02,23.70
2010,08,17,02,03,23.70
2010,08,17,02,04,23.70
2010,08,17,02,05,23.70
2010,08,17,02,06,23.60
2010,08,17,02,07,23.60
2010,08,17,02,08,23.50
2010,08,17,02,09,23.40
2010,08,17,02,10,23.40
2010,08,17,02,11,23.30
2010,08,17,02,12,23.20
2010,08,17,02,13,23.10
2010,08,17,02,14,23.00
2010,08,17,02,15,23.00
2010,08,17,02,16,22.90
2010,08,17,02,17,22.80
2010,08,17,02,18,22.70
2010,08,17,02,19,22.70
2010,08,17,02,20,22.60
2010,08,17,02,21,22.50
2010,08,17,02,22,22.40
2010,08,17,02,23,22.30
2010,08,17,02,24,22.20
2010,08,17,02,25,22.10
2010,08,17,02,26,22.00
2010,08,17,02,27,21.90
2010,08,17,02,28,21.80
2010,08,17,02,29,21.70
2010,08,17,02,30,21.50
2010,08,17,02,31,21.40
2010,08,17,02,32,21.30
2010,08,17,02,33,21.20
2010,08,17,02,34,21.00
2010,08,17,02,35,20.90
2010,08,17,02,36,20.80
2010,08,17,02,37,20.80
2010,08,17,02,38,20.70
2010,08,17,02,39,20.60
2010,08,17,02,40,20.50
2010,08,17,02,41,20.40
2010,08,17,02,42,20.30
2010,08,17,02,43,20.30
2010,08,17,02,44,20.20
2010,08,17,02,45,20.10
2010,08,17,02,46,20.00
2010,08,17,02,47,20.00
2010,08,17,02,48,19.90
2010,08,17,02,49,19.90
2010,08,17,02,50,19.80
2010,08,17,02,51,19.80
2010,08,17,02,52,19.70
2010,08,17,02,53,19.60
2010,08,17,02,54,19.50
2010,08,17,02,55,19.40
2010,08,17,02,56,19.40
2010,08,17,02,57,19.40
2010,08,17,02,58,19.30
2010,08,17,02,59,19.30
2010,08,17,03,00,19.30
2010,08,17,03,01,19.30
2010,08,17,03,02,19.30
2010,08,17,03,03,19.20
2010,08,17,03,04,19.20
2010,08,17,03,05,19.20
2010,08,17,03,06,19.10
2010,08,17,03,07,19.10
2010,08,17,03,08,19.10
2010,08,17,03,09,19.10
2010,08,17,03,10,19.10
2010,08,17,03,11,19.00
2010,08,17,03,12,19.00
2010,08,17,03,13,18.90
2010,08,17,03,14,18.90
2010,08,17,03,15,18.80
2010,08,17,03,16,18.80
2010,08,17,03,17,18.70
2010,08,17,03,18,18.70
2010,08,17,03,19,18.60
2010,08,17,03,20,18.60
2010,08,17,03,21,18.60
2010,08,17,03,22,18.50
2010,08,17,03,23,18.50
2010,08,17,03,24,18.50
2010,08,17,03,25,18.40
2010,08,17,03,26,18.40
2010,08,17,03,27,18.40
2010,08,17,03,28,18.40
2010,08,17,03,29,18.40
2010,08,17,03,30,18.40
2010,08,17,03,31,18.50
2010,08,17,03,32,18.50
2010,08,17,03,33,18.60
2010,08,17,03,34,18.70
2010,08,17,03,35,18.80
2010,08,17,03,36,18.90
2010,08,17,03,37,19.00
2010,08,17,03,38,19.10
2010,08,17,03,39,19.10
2010,08,17,03,40,19.20
2010,08,17,03,41,19.20
2010,08,17,03,42,19.20
2010,08,17,03,43,19.20
2010,08,17,03,44,19.20
2010,08,17,03,45,19.20
2010,08,17,03,46,19.10
2010,08,17,03,47,19.10
2010,08,17,03,48,19.00
2010,08,17,03,49,19.00
2010,08,17,03,50,18.90
2010,08,17,03,51,18.90
2010,08,17,03,52,18.90
2010,08,17,03,53,18.90
2010,08,17,03,54,18.90
2010,08,17,03,55,18.80
2010,08,17,03,56,18.80
2010,08,17,03,57,18.80
2010,08,17,03,58,18.70
2010,08,17,03,59,18.70
2010,08,17,04,00,18.60
2010,08,17,04,01,18.60
2010,08,17,04,02,18.60
2010,08,17,04,03,18.60
2010,08,17,04,04,18.50
2010,08,17,04,05,18.50
2010,08,17,04,06,18.50
2010,08,17,04,07,18.60
2010,08,17,04,08,18.60
2010,08,17,04,09,18.60
2010,08,17,04,10,18.60
2010,08,17,04,11,18.70
2010,08,17,04,12,18.80
2010,08,17,04,13,18.90
2010,08,17,04,14,19.00
2010,08,17,04,15,19.10
2010,08,17,04,16,19.10
2010,08,17,04,17,19.10
2010,08,17,04,18,19.10
2010,08,17,04,19,19.00
2010,08,17,04,20,19.00
2010,08,17,04,21,19.00
2010,08,17,04,22,19.00
2010,08,17,04,23,19.00
2010,08,17,04,24,19.00
2010,08,17,04,25,18.90
2010,08,17,04,26,19.00
2010,08,17,04,27,19.00
2010,08,17,04,28,19.10
2010,08,17,04,29,19.10
2010,08,17,04,30,19.10
2010,08,17,04,31,19.10
2010,08,17,04,32,19.20
2010,08,17,04,33,19.20
2010,08,17,04,34,19.20
2010,08,17,04,35,19.20
2010,08,17,04,36,19.10
2010,08,17,04,37,19.10
2010,08,17,04,38,19.10
2010,08,17,04,39,19.00
2010,08,17,04,40,19.00
2010,08,17,04,41,18.90
2010,08,17,04,42,18.90
2010,08,17,04,43,18.80
2010,08,17,04,44,18.80
2010,08,17,04,45,18.70
2010,08,17,04,46,18.60
2010,08,17,04,47,18.50
2010,08,17,04,48,18.30
2010,08,17,04,49,18.20
2010,08,17,04,50,18.10
2010,08,17,04,51,18.00
2010,08,17,04,52,18.00
2010,08,17,04,53,17.90
2010,08,17,04,54,17.90
2010,08,17,04,55,17.80
2010,08,17,04,56,17.80
2010,08,17,04,57,17.70
2010,08,17,04,58,17.70
2010,08,17,04,59,17.60
2010,08,17,05,00,17.60
2010,08,17,05,01,17.50
2010,08,17,05,02,17.50
2010,08,17,05,03,17.50
2010,08,17,05,04,17.50
2010,08,17,05,05,17.40
2010,08,17,05,06,17.40
2010,08,17,05,07,17.40
2010,08,17,05,08,17.40
2010,08,17,05,09,17.30
2010,08,17,05,10,17.30
2010,08,17,05,11,17.30
2010,08,17,05,12,17.30
2010,08,17,05,13,17.30
2010,08,17,05,14,17.30
2010,08,17,05,15,17.30
2010,08,17,05,16,17.30
2010,08,17,05,17,17.30
2010,08,17,05,18,17.20
2010,08,17,05,19,17.20
2010,08,17,05,20,17.20
2010,08,17,05,21,17.20
2010,08,17,05,22,17.20
2010,08,17,05,23,17.20
2010,08,17,05,24,17.20
2010,08,17,05,25,17.20
2010,08,17,05,26,17.20
2010,08,17,05,27,17.10
2010,08,17,05,28,17.10
2010,08,17,05,29,17.00
2010,08,17,05,30,17.00
2010,08,17,05,31,16.90
2010,08,17,05,32,16.90
2010,08,17,05,33,16.90
2010,08,17,05,34,16.90
2010,08,17,05,35,16.80
2010,08,17,05,36,16.80
2010,08,17,05,37,16.80
2010,08,17,05,38,16.70
2010,08,17,05,39,16.70
2010,08,17,05,40,16.60
2010,08,17,05,41,16.60
2010,08,17,05,42,16.50
2010,08,17,05,43,16.50
2010,08,17,05,44,16.40
2010,08,17,05,45,16.40
2010,08,17,05,46,16.30
2010,08,17,05,47,16.30
2010,08,17,05,48,16.20
2010,08,17,05,49,16.20
2010,08,17,05,50,16.20
2010,08,17,05,51,16.20
2010,08,17,05,52,16.20
2010,08,17,05,53,16.20
2010,08,17,05,54,16.20
2010,08,17,05,55,16.20
2010,08,17,05,56,16.10
2010,08,17,05,57,16.10
2010,08,17,05,58,16.00
2010,08,17,05,59,16.00
2010,08,17,06,00,16.00
2010,08,17,06,01,16.00
2010,08,17,06,02,16.00
2010,08,17,06,03,16.00
2010,08,17,06,04,16.00
2010,08,17,06,05,15.90
2010,08,17,06,06,15.90
2010,08,17,06,07,15.90
2010,08,17,06,08,15.80
2010,08,17,06,09,15.80
2010,08,17,06,10,15.80
2010,08,17,06,11,15.70
2010,08,17,06,12,15.70
2010,08,17,06,13,15.70
2010,08,17,06,14,15.60
2010,08,17,06,15,15.60
2010,08,17,06,16,15.50
2010,08,17,06,17,15.50
2010,08,17,06,18,15.40
2010,08,17,06,19,15.30
2010,08,17,06,20,15.30
2010,08,17,06,21,15.30
2010,08,17,06,22,15.30
2010,08,17,06,23,15.20
2010,08,17,06,24,15.20
2010,08,17,06,25,15.20
2010,08,17,06,26,15.20
2010,08,17,06,27,15.20
2010,08,17,06,28,15.20
2010,08,17,06,29,15.20
2010,08,17,06,30,15.20
2010,08,17,06,31,15.20
2010,08,17,06,32,15.10
2010,08,17,06,33,15.10
2010,08,17,06,34,15.10
2010,08,17,06,35,15.10
2010,08,17,06,36,15.10
2010,08,17,06,37,15.10
2010,08,17,06,38,15.10
2010,08,17,06,39,15.10
2010,08,17,06,40,15.10
2010,08,17,06,41,15.20
2010,08,17,06,42,15.20
2010,08,17,06,43,15.20
2010,08,17,06,44,15.20
2010,08,17,06,45,15.20
2010,08,17,06,46,15.20
2010,08,17,06,47,15.30
2010,08,17,06,48,15.30
2010,08,17,06,49,15.30
2010,08,17,06,50,15.30
2010,08,17,06,51,15.30
2010,08,17,06,52,15.30
2010,08,17,06,53,15.30
2010,08,17,06,54,15.30
2010,08,17,06,55,15.30
2010,08,17,06,56,15.30
2010,08,17,06,57,15.40
2010,08,17,06,58,15.40
2010,08,17,06,59,15.40
2010,08,17,07,00,15.50
2010,08,17,07,01,15.50
2010,08,17,07,02,15.60
2010,08,17,07,03,15.60
2010,08,17,07,04,15.60
2010,08,17,07,05,15.70
2010,08,17,07,06,15.70
2010,08,17,07,07,15.70
2010,08,17,07,08,15.70
2010,08,17,07,09,15.80
2010,08,17,07,10,15.80
2010,08,17,07,11,15.80
2010,08,17,07,12,15.80
2010,08,17,07,13,15.90
2010,08,17,07,14,15.90
2010,08,17,07,15,15.90
2010,08,17,07,16,16.00
2010,08,17,07,17,16.00
2010,08,17,07,18,16.00
2010,08,17,07,19,16.10
2010,08,17,07,20,16.10
2010,08,17,07,21,16.10
2010,08,17,07,22,16.10
2010,08,17,07,23,16.10
2010,08,17,07,24,16.20
2010,08,17,07,25,16.20
2010,08,17,07,26,16.20
2010,08,17,07,27,16.30
2010,08,17,07,28,16.30
2010,08,17,07,29,16.30
2010,08,17,07,30,16.40
2010,08,17,07,31,16.40
2010,08,17,07,32,16.50
2010,08,17,07,33,16.60
2010,08,17,07,34,16.60
2010,08,17,07,35,16.70
2010,08,17,07,36,16.70
2010,08,17,07,37,16.80
2010,08,17,07,38,16.80
2010,08,17,07,39,16.90
2010,08,17,07,40,16.90
2010,08,17,07,41,17.00
2010,08,17,07,42,17.10
2010,08,17,07,43,17.10
2010,08,17,07,44,17.20
2010,08,17,07,45,17.20
2010,08,17,07,46,17.30
2010,08,17,07,47,17.30
2010,08,17,07,48,17.40
2010,08,17,07,49,17.50
2010,08,17,07,50,17.60
2010,08,17,07,51,17.60
2010,08,17,07,52,17.70
2010,08,17,07,53,17.80
2010,08,17,07,54,17.80
2010,08,17,07,55,17.90
2010,08,17,07,56,18.00
2010,08,17,07,57,18.10
2010,08,17,07,58,18.30
2010,08,17,07,59,18.40
2010,08,17,08,00,18.50
2010,08,17,08,01,18.60
2010,08,17,08,02,18.80
2010,08,17,08,03,18.90
2010,08,17,08,04,19.00
2010,08,17,08,05,19.10
2010,08,17,08,06,19.20
2010,08,17,08,07,19.30
2010,08,17,08,08,19.40
2010,08,17,08,09,19.50
2010,08,17,08,10,19.60
2010,08,17,08,11,19.80
2010,08,17,08,12,19.90
2010,08,17,08,13,20.00
2010,08,17,08,14,20.10
2010,08,17,08,15,20.20
2010,08,17,08,16,20.30
2010,08,17,08,17,20.30
2010,08,17,08,18,20.40
2010,08,17,08,19,20.50
2010,08,17,08,20,20.60
2010,08,17,08,21,20.70
2010,08,17,08,22,20.80
2010,08,17,08,23,20.90
2010,08,17,08,24,21.00
2010,08,17,08,25,21.10
2010,08,17,08,26,21.20
2010,08,17,08,27,21.30
2010,08,17,08,28,21.40
2010,08,17,08,29,21.50
2010,08,17,08,30,21.60
2010,08,17,08,31,21.70
2010,08,17,08,32,21.80
2010,08,17,08,33,21.80
2010,08,17,08,34,21.90
2010,08,17,08,35,21.90
2010,08,17,08,36,21.90
2010,08,17,08,37,21.90
2010,08,17,08,38,22.00
2010,08,17,08,39,22.00
2010,08,17,08,40,22.10
2010,08,17,08,41,22.20
2010,08,17,08,42,22.20
2010,08,17,08,43,22.30
2010,08,17,08,44,22.30
2010,08,17,08,45,22.30
2010,08,17,08,46,22.40
2010,08,17,08,47,22.50
2010,08,17,08,48,22.50
2010,08,17,08,49,22.60
2010,08,17,08,50,22.70
2010,08,17,08,51,22.70
2010,08,17,08,52,22.80
2010,08,17,08,53,22.90
2010,08,17,08,54,22.90
2010,08,17,08,55,23.00
2010,08,17,08,56,23.10
2010,08,17,08,57,23.10
2010,08,17,08,58,23.10
2010,08,17,08,59,23.10
2010,08,17,09,00,23.10
2010,08,17,09,01,23.10
2010,08,17,09,02,23.10
2010,08,17,09,03,23.10
2010,08,17,09,04,23.20
2010,08,17,09,05,23.20
2010,08,17,09,06,23.20
2010,08,17,09,07,23.30
2010,08,17,09,08,23.30
2010,08,17,09,09,23.30
2010,08,17,09,10,23.30
2010,08,17,09,11,23.30
2010,08,17,09,12,23.30
2010,08,17,09,13,23.30
2010,08,17,09,14,23.30
2010,08,17,09,15,23.30
2010,08,17,09,16,23.20
2010,08,17,09,17,23.20
2010,08,17,09,18,23.20
2010,08,17,09,19,23.20
2010,08,17,09,20,23.10
2010,08,17,09,21,23.10
2010,08,17,09,22,23.10
2010,08,17,09,23,23.10
2010,08,17,09,24,23.10
2010,08,17,09,25,23.10
2010,08,17,09,26,23.10
2010,08,17,09,27,23.10
2010,08,17,09,28,23.10
2010,08,17,09,29,23.10
2010,08,17,09,30,23.10
2010,08,17,09,31,23.10
2010,08,17,09,32,23.10
2010,08,17,09,33,23.10
2010,08,17,09,34,23.10
2010,08,17,09,35,23.20
2010,08,17,09,36,23.20
2010,08,17,09,37,23.20
2010,08,17,09,38,23.20
2010,08,17,09,39,23.30
2010,08,17,09,40,23.30
2010,08,17,09,41,23.30
2010,08,17,09,42,23.20
2010,08,17,09,43,23.20
2010,08,17,09,44,23.20
2010,08,17,09,45,23.20
2010,08,17,09,46,23.20
2010,08,17,09,47,23.20
2010,08,17,09,48,23.30
2010,08,17,09,49,23.30
2010,08,17,09,50,23.40
2010,08,17,09,51,23.40
2010,08,17,09,52,23.40
2010,08,17,09,53,23.30
2010,08,17,09,54,23.30
2010,08,17,09,55,23.30
2010,08,17,09,56,23.30
2010,08,17,09,57,23.30
2010,08,17,09,58,23.30
2010,08,17,09,59,23.20
2010,08,17,10,00,23.20
2010,08,17,10,01,23.20
2010,08,17,10,02,23.20
2010,08,17,10,03,23.20
2010,08,17,10,04,23.30
2010,08,17,10,05,23.40
2010,08,17,10,06,23.40
2010,08,17,10,07,23.50
2010,08,17,10,08,23.50
2010,08,17,10,09,23.60
2010,08,17,10,10,23.60
2010,08,17,10,11,23.60
2010,08,17,10,12,23.60
2010,08,17,10,13,23.60
2010,08,17,10,14,23.60
2010,08,17,10,15,23.70
2010,08,17,10,16,23.80
2010,08,17,10,17,23.80
2010,08,17,10,18,23.90
2010,08,17,10,19,23.90
2010,08,17,10,20,23.90
2010,08,17,10,21,23.90
2010,08,17,10,22,23.90
2010,08,17,10,23,24.00
2010,08,17,10,24,24.00
2010,08,17,10,25,24.00
2010,08,17,10,26,24.00
2010,08,17,10,27,24.10
2010,08,17,10,28,24.10
2010,08,17,10,29,24.10
2010,08,17,10,30,24.10
2010,08,17,10,31,24.20
2010,08,17,10,32,24.20
2010,08,17,10,33,24.20
2010,08,17,10,34,24.20
2010,08,17,10,35,24.30
2010,08,17,10,36,24.30
2010,08,17,10,37,24.30
2010,08,17,10,38,24.30
2010,08,17,10,39,24.40
2010,08,17,10,40,24.40
2010,08,17,10,41,24.40
2010,08,17,10,42,24.40
2010,08,17,10,43,24.40
2010,08,17,10,44,24.40
2010,08,17,10,45,24.40
2010,08,17,10,46,24.40
2010,08,17,10,47,24.40
2010,08,17,10,48,24.40
2010,08,17,10,49,24.30
2010,08,17,10,50,24.30
2010,08,17,10,53,24.30
2010,08,17,10,54,24.30
2010,08,17,10,55,24.30
2010,08,17,10,56,24.30
2010,08,17,10,57,24.30
2010,08,17,10,58,24.40
2010,08,17,10,59,24.40
2010,08,17,11,00,24.50
2010,08,17,11,01,24.60
2010,08,17,11,02,24.70
2010,08,17,11,03,24.70
2010,08,17,11,04,24.80
2010,08,17,11,05,24.90
2010,08,17,11,06,24.90
2010,08,17,11,07,25.00
2010,08,17,11,08,25.00
2010,08,17,11,09,25.10
2010,08,17,11,10,25.10
2010,08,17,11,11,25.20
2010,08,17,11,12,25.20
2010,08,17,11,13,25.20
2010,08,17,11,14,25.20
2010,08,17,11,15,25.20
2010,08,17,11,16,25.20
2010,08,17,11,17,25.30
2010,08,17,11,18,25.40
2010,08,17,11,19,25.40
2010,08,17,11,20,25.50
2010,08,17,11,21,25.50
2010,08,17,11,22,25.60
2010,08,17,11,23,25.50
2010,08,17,11,24,25.50
2010,08,17,11,25,25.40
2010,08,17,11,26,25.40
2010,08,17,11,27,25.40
2010,08,17,11,28,25.40
2010,08,17,11,29,25.40
2010,08,17,11,30,25.40
2010,08,17,11,31,25.40
2010,08,17,11,32,25.40
2010,08,17,11,33,25.40
2010,08,17,11,34,25.40
2010,08,17,11,35,25.30
2010,08,17,11,36,25.40
2010,08,17,11,37,25.40
2010,08,17,11,38,25.30
2010,08,17,11,39,25.30
2010,08,17,11,40,25.30
2010,08,17,11,41,25.30
2010,08,17,11,42,25.30
2010,08,17,11,43,25.40
2010,08,17,11,44,25.40
2010,08,17,11,45,25.40
2010,08,17,11,46,25.50
2010,08,17,11,47,25.60
2010,08,17,11,48,25.60
2010,08,17,11,49,25.60
2010,08,17,11,50,25.70
2010,08,17,11,51,25.70
2010,08,17,11,52,25.70
2010,08,17,11,53,25.70
2010,08,17,11,54,25.70
2010,08,17,11,55,25.70
2010,08,17,11,56,25.70
2010,08,17,11,57,25.70
2010,08,17,11,58,25.70
2010,08,17,11,59,25.60
2010,08,17,12,00,25.50
2010,08,17,12,01,25.50
2010,08,17,12,02,25.50
2010,08,17,12,03,25.50
2010,08,17,12,04,25.50
2010,08,17,12,05,25.60
2010,08,17,12,06,25.60
2010,08,17,12,07,25.50
2010,08,17,12,08,25.50
2010,08,17,12,09,25.50
2010,08,17,12,10,25.50
2010,08,17,12,11,25.50
2010,08,17,12,12,25.50
2010,08,17,12,13,25.50
2010,08,17,12,14,25.60
2010,08,17,12,15,25.60
2010,08,17,12,16,25.60
2010,08,17,12,17,25.60
2010,08,17,12,18,25.70
2010,08,17,12,19,25.70
2010,08,17,12,20,25.70
2010,08,17,12,21,25.80
2010,08,17,12,22,25.80
2010,08,17,12,23,25.80
2010,08,17,12,24,25.80
2010,08,17,12,25,25.80
2010,08,17,12,26,25.80
2010,08,17,12,27,25.80
2010,08,17,12,28,25.80
2010,08,17,12,29,25.80
2010,08,17,12,30,25.80
2010,08,17,12,31,25.70
2010,08,17,12,32,25.70
2010,08,17,12,33,25.70
2010,08,17,12,34,25.80
2010,08,17,12,35,25.80
2010,08,17,12,36,25.90
2010,08,17,12,37,26.00
2010,08,17,12,38,26.00
2010,08,17,12,39,26.00
2010,08,17,12,40,26.00
2010,08,17,12,41,26.00
2010,08,17,12,42,26.10
2010,08,17,12,43,26.10
2010,08,17,12,44,26.10
2010,08,17,12,45,26.10
2010,08,17,12,46,26.10
2010,08,17,12,47,26.10
2010,08,17,12,48,26.10
2010,08,17,12,49,26.00
2010,08,17,12,50,26.00
2010,08,17,12,51,26.00
2010,08,17,12,52,25.90
2010,08,17,12,53,25.80
2010,08,17,12,54,25.80
2010,08,17,12,55,25.70
2010,08,17,12,56,25.70
2010,08,17,12,57,25.80
2010,08,17,12,58,25.80
2010,08,17,12,59,25.90
2010,08,17,13,00,25.90
2010,08,17,13,01,25.90
2010,08,17,13,02,26.00
2010,08,17,13,03,26.00
2010,08,17,13,04,26.00
2010,08,17,13,05,26.00
2010,08,17,13,06,26.00
2010,08,17,13,07,26.00
2010,08,17,13,08,26.00
2010,08,17,13,09,26.10
2010,08,17,13,10,26.10
2010,08,17,13,11,26.10
2010,08,17,13,12,26.10
2010,08,17,13,13,26.10
2010,08,17,13,14,26.20
2010,08,17,13,15,26.20
2010,08,17,13,16,26.30
2010,08,17,13,17,26.30
2010,08,17,13,18,26.40
2010,08,17,13,19,26.40
2010,08,17,13,20,26.40
2010,08,17,13,21,26.40
2010,08,17,13,22,26.40
2010,08,17,13,23,26.40
2010,08,17,13,24,26.50
2010,08,17,13,25,26.50
2010,08,17,13,26,26.50
2010,08,17,13,27,26.60
2010,08,17,13,28,26.60
2010,08,17,13,29,26.70
2010,08,17,13,30,26.70
2010,08,17,13,31,26.70
2010,08,17,13,32,26.70
2010,08,17,13,33,26.70
2010,08,17,13,34,26.70
2010,08,17,13,35,26.70
2010,08,17,13,36,26.80
2010,08,17,13,37,26.80
2010,08,17,13,38,26.80
2010,08,17,13,39,26.90
2010,08,17,13,40,26.90
2010,08,17,13,41,26.90
2010,08,17,13,42,26.90
2010,08,17,13,43,27.00
2010,08,17,13,44,27.00
2010,08,17,13,45,27.10
2010,08,17,13,46,27.10
2010,08,17,13,47,27.10
2010,08,17,13,48,27.20
2010,08,17,13,49,27.20
2010,08,17,13,50,27.30
2010,08,17,13,51,27.30
2010,08,17,13,52,27.40
2010,08,17,13,53,27.50
2010,08,17,13,54,27.50
2010,08,17,13,55,27.60
2010,08,17,13,56,27.60
2010,08,17,13,57,27.70
2010,08,17,13,58,27.70
2010,08,17,13,59,27.70
2010,08,17,14,00,27.70
2010,08,17,14,01,27.70
2010,08,17,14,02,27.60
2010,08,17,14,03,27.60
2010,08,17,14,04,27.60
2010,08,17,14,05,27.60
2010,08,17,14,06,27.60
2010,08,17,14,07,27.60
2010,08,17,14,08,27.60
2010,08,17,14,09,27.70
2010,08,17,14,10,27.80
2010,08,17,14,11,27.80
2010,08,17,14,12,27.80
2010,08,17,14,13,27.80
2010,08,17,14,14,27.90
2010,08,17,14,15,27.90
2010,08,17,14,16,28.00
2010,08,17,14,17,28.00
2010,08,17,14,18,28.10
2010,08,17,14,19,28.20
2010,08,17,14,20,28.10
2010,08,17,14,21,28.10
2010,08,17,14,22,28.00
2010,08,17,14,23,27.90
2010,08,17,14,24,27.80
2010,08,17,14,25,27.80
2010,08,17,14,26,27.70
2010,08,17,14,27,27.60
2010,08,17,14,28,27.60
2010,08,17,14,29,27.50
2010,08,17,14,30,27.50
2010,08,17,14,31,27.40
2010,08,17,14,32,27.30
2010,08,17,14,33,27.30
2010,08,17,14,34,27.30
2010,08,17,14,35,27.20
2010,08,17,14,36,27.30
2010,08,17,14,37,27.30
2010,08,17,14,38,27.30
2010,08,17,14,39,27.30
2010,08,17,14,40,27.30
2010,08,17,14,41,27.20
2010,08,17,14,42,27.20
2010,08,17,14,43,27.20
2010,08,17,14,44,27.10
2010,08,17,14,45,27.00
2010,08,17,14,46,27.00
2010,08,17,14,47,26.90
2010,08,17,14,48,26.90
2010,08,17,14,49,26.90
2010,08,17,14,50,26.90
2010,08,17,14,51,26.90
2010,08,17,14,52,26.90
2010,08,17,14,53,26.80
2010,08,17,14,54,26.80
2010,08,17,14,55,26.80
2010,08,17,14,56,26.80
2010,08,17,14,57,26.80
2010,08,17,14,58,26.80
2010,08,17,14,59,26.90
2010,08,17,15,00,26.90
2010,08,17,15,01,26.90
2010,08,17,15,02,26.90
2010,08,17,15,03,26.90
2010,08,17,15,04,26.90
2010,08,17,15,05,26.80
2010,08,17,15,06,26.80
2010,08,17,15,07,26.80
2010,08,17,15,08,26.90
2010,08,17,15,09,26.90
2010,08,17,15,10,26.90
2010,08,17,15,11,27.00
2010,08,17,15,12,27.10
2010,08,17,15,13,27.10
2010,08,17,15,14,27.20
2010,08,17,15,15,27.20
2010,08,17,15,16,27.20
2010,08,17,15,17,27.30
2010,08,17,15,18,27.30
2010,08,17,15,19,27.30
2010,08,17,15,20,27.30
2010,08,17,15,21,27.30
2010,08,17,15,22,27.40
2010,08,17,15,23,27.40
2010,08,17,15,24,27.40
2010,08,17,15,25,27.40
2010,08,17,15,26,27.50
2010,08,17,15,27,27.50
2010,08,17,15,28,27.60
2010,08,17,15,29,27.60
2010,08,17,15,30,27.70
2010,08,17,15,31,27.70
2010,08,17,15,32,27.70
2010,08,17,15,33,27.70
2010,08,17,15,34,27.70
2010,08,17,15,35,27.70
2010,08,17,15,36,27.60
2010,08,17,15,37,27.60
2010,08,17,15,38,27.60
2010,08,17,15,39,27.60
2010,08,17,15,40,27.60
2010,08,17,15,41,27.60
2010,08,17,15,42,27.60
2010,08,17,15,43,27.60
2010,08,17,15,44,27.60
2010,08,17,15,45,27.60
2010,08,17,15,46,27.70
2010,08,17,15,47,27.70
2010,08,17,15,48,27.80
2010,08,17,15,49,27.80
2010,08,17,15,50,27.90
2010,08,17,15,51,27.90
2010,08,17,15,52,27.90
2010,08,17,15,53,27.90
2010,08,17,15,54,28.00
2010,08,17,15,55,28.00
2010,08,17,15,56,28.00
2010,08,17,15,57,28.10
2010,08,17,15,58,28.10
2010,08,17,15,59,28.00
2010,08,17,16,00,28.00
2010,08,17,16,01,28.00
2010,08,17,16,02,28.00
2010,08,17,16,03,28.00
2010,08,17,16,04,28.10
2010,08,17,16,05,28.10
2010,08,17,16,06,28.10
2010,08,17,16,07,28.10
2010,08,17,16,08,28.10
2010,08,17,16,09,28.10
2010,08,17,16,10,28.10
2010,08,17,16,11,28.10
2010,08,17,16,12,28.10
2010,08,17,16,13,28.20
2010,08,17,16,14,28.20
2010,08,17,16,15,28.20
2010,08,17,16,16,28.20
2010,08,17,16,17,28.30
2010,08,17,16,18,28.30
2010,08,17,16,19,28.30
2010,08,17,16,20,28.30
2010,08,17,16,21,28.30
2010,08,17,16,22,28.30
2010,08,17,16,23,28.30
2010,08,17,16,24,28.30
2010,08,17,16,25,28.30
2010,08,17,16,26,28.30
2010,08,17,16,27,28.40
2010,08,17,16,28,28.40
2010,08,17,16,29,28.40
2010,08,17,16,30,28.40
2010,08,17,16,31,28.50
2010,08,17,16,32,28.50
2010,08,17,16,33,28.50
2010,08,17,16,34,28.40
2010,08,17,16,35,28.40
2010,08,17,16,36,28.40
2010,08,17,16,37,28.40
2010,08,17,16,38,28.40
2010,08,17,16,39,28.40
2010,08,17,16,40,28.40
2010,08,17,16,41,28.40
2010,08,17,16,42,28.40
2010,08,17,16,43,28.40
2010,08,17,16,44,28.40
2010,08,17,16,45,28.30
2010,08,17,16,46,28.30
2010,08,17,16,47,28.30
2010,08,17,16,48,28.20
2010,08,17,16,49,28.20
2010,08,17,16,50,28.20
2010,08,17,16,51,28.20
2010,08,17,16,52,28.20
2010,08,17,16,53,28.30
2010,08,17,16,54,28.30
2010,08,17,16,55,28.30
2010,08,17,16,56,28.30
2010,08,17,16,57,28.30
2010,08,17,16,58,28.30
2010,08,17,16,59,28.30
2010,08,17,17,00,28.30
2010,08,17,17,01,28.30
2010,08,17,17,02,28.30
2010,08,17,17,03,28.20
2010,08,17,17,04,28.20
2010,08,17,17,05,28.20
2010,08,17,17,06,28.10
2010,08,17,17,07,28.10
2010,08,17,17,08,28.10
2010,08,17,17,09,28.00
2010,08,17,17,10,28.00
2010,08,17,17,11,28.00
2010,08,17,17,12,27.90
2010,08,17,17,13,27.90
2010,08,17,17,14,27.90
2010,08,17,17,15,27.80
2010,08,17,17,16,27.80
2010,08,17,17,17,27.80
2010,08,17,17,18,27.80
2010,08,17,17,19,27.80
2010,08,17,17,20,27.80
2010,08,17,17,21,27.80